Flag for Germany Weather past 2 weeks in Kassel, Hesse, Germany

Now
41 °F

Partly sunny.


Feels Like: 32 °F
Forecast: 35 / 41 °F
Wind: 20 mph from West

Location: Kassel / Calden

Current Time: Apr 1, 2015 at 1:22:07 PM

Latest Report: Apr 1, 2015 at 12:50 PM


Visibility: N/A

Pressure: 29.92 "Hg

Humidity: 76%

Dew point: 34 °F

Location of KasselLocation

Historic Weather in Kassel — Graph

°F

Kassel temperature yesterday

Maximum temperature yesterday: 50 °F (at 8:20 AM)
Minimum temperature yesterday: 39 °F (at 8:50 PM)
Average temperature yesterday: 45 °F

Past Weeks' High & Low Weather Summary

 TemperatureHumidityPressure
High63 °F (Mar 25, 1:50 PM)100% (Mar 18, 6:20 AM)30.33 "Hg (Mar 18, 6:20 AM)
Low27 °F (Mar 23, 5:50 AM)37% (Mar 25, 1:50 PM)29.15 "Hg (Mar 31, 7:50 AM)
Average44 °F76%29.91 "Hg
* Reported Mar 17 11:20 AM — Apr 1 12:20 PM, Kassel, Weather by CustomWeather, © 2015

Note: Actual official high and low records may vary slightly from our data, if they occured in-between our weather recording intervals... More about our weather records

Advertising

Kassel weather history for previous 24 hours

 ConditionsComfort  
Time TempWeatherWind HumidityBarometerVisibility
12:20 PM
Wed, Apr 1
39 °FPartly sunny.24 mph75%29.92 "HgN/A
11:50 AM39 °FLight rain. Partly sunny.16 mph81%29.92 "Hg5 mi
11:20 AM37 °FPartly sunny.21 mph87%29.92 "HgN/A
10:50 AM37 °FBroken clouds.22 mph87%29.89 "HgN/A
10:20 AM37 °FPartly sunny.22 mph87%29.89 "HgN/A
9:50 AM34 °FLight rain. Partly sunny.18 mph93%29.86 "Hg4 mi
9:20 AM34 °FHeavy snow. Overcast.21 mph93%29.86 "Hg1 mi
8:50 AM36 °FLight rain. Partly sunny.20 mph81%29.83 "Hg5 mi
8:20 AM34 °FLight snow. Partly sunny.22 mph87%29.83 "Hg5 mi
7:50 AM34 °FPassing clouds.18 mph93%29.80 "HgN/A
7:20 AM34 °FScattered showers. Passing clouds.20 mph93%29.80 "HgN/A
6:50 AM32 °FPassing clouds.14 mph100%29.80 "HgN/A
6:20 AM34 °FSnow showers. Fog.18 mph93%29.77 "Hg3 mi
5:50 AM36 °FLight rain. Passing clouds.17 mph81%29.74 "Hg1 mi
9:50 PM
Tue, Mar 31
41 °FPassing clouds.20 mph76%29.65 "HgN/A
9:20 PM39 °FPartly cloudy.25 mph81%29.65 "HgN/A
8:50 PM39 °FPartly sunny.24 mph81%29.65 "HgN/A
8:20 PM41 °FLight rain. Partly sunny.30 mph76%29.62 "HgN/A
7:50 PM45 °FPartly sunny.24 mph53%29.59 "HgN/A
7:20 PM45 °FScattered clouds.22 mph61%29.59 "HgN/A
6:50 PM45 °FBroken clouds.26 mph61%29.59 "HgN/A
6:20 PM45 °FScattered clouds.25 mph61%29.56 "HgN/A
5:50 PM43 °FScattered clouds.28 mph76%29.53 "HgN/A
5:20 PM43 °FPartly sunny.30 mph76%29.50 "HgN/A
4:50 PM41 °FLight rain. Partly sunny.29 mph81%29.50 "HgN/A
4:20 PM45 °FLight rain. Scattered clouds.33 mph66%29.47 "HgN/A
3:50 PM46 °FScattered clouds.36 mph62%29.45 "HgN/A
3:20 PM46 °FScattered clouds.37 mph66%29.42 "HgN/A
2:50 PM48 °FScattered clouds.37 mph66%29.39 "HgN/A
2:20 PM48 °FBroken clouds.28 mph66%29.39 "HgN/A
1:50 PM48 °FLight rain. Partly sunny.31 mph66%29.36 "HgN/A
1:20 PM46 °FLight rain. Partly sunny.32 mph76%29.33 "HgN/A
Weather by CustomWeather, © 2015

See weather overviewHow to use our weather pages